Ainsworth, NE

12:43 AM CST on February 14, 2016 (GMT -0600)
Ainsworth Municipal

Weather History for KANW - June, 2013

Change the Weather History Date:

Friday, June 14, 2013

  Actual Average Record
Temperature  
Mean Temperature 74 °F -  
Max Temperature 85 °F 74 °F 96 °F (2006)
Min Temperature 62 °F 52 °F 48 °F (1999)
Cooling Degree Days 8    
Growing Degree Days 24 (Base 50)    
Moisture  
Dew Point 58 °F    
Average Humidity 60    
Maximum Humidity 83    
Minimum Humidity 36    
Precipitation  
Precipitation 0.00 in - - ()
Sea Level Pressure  
Sea Level Pressure 29.86 in    
Wind  
Wind Speed 13 mph (SE)    
Max Wind Speed 20 mph    
Max Gust Speed 25 mph    
Visibility 10 miles    
Events      
Averages and records for this station are not official NWS values.
T = Trace of Precipitation, MM = Missing Value Source: NWS Daily Summary

Daily Weather History Graph

Daily Weather History Graph

Search for Another Location

Airport or City:

Trip Planner

Search our weather history database for the weather conditions in past years. The results will help you decide how hot, cold, wet, or windy it might be!

Date:

Astronomy

Jun. 14, 2013 Rise Set
Actual Time 6:01 AM CDT 9:19 PM CDT
Civil Twilight 5:26 AM CDT 9:54 PM CDT
Nautical Twilight 4:41 AM CDT 10:39 PM CDT
Astronomical Twilight 3:46 AM CDT 11:34 PM CDT
Moon 11:45 AM CDT 12:20 AM CDT
Length of Visible Light 16h 27m
Length of Day
15h 17m
Waxing Crescent, 30% of the Moon is Illuminated
Jun 14
Waxing Crescent
Jun 16
First Quarter
Jun 23
Full
Jun 29
Last Quarter
Jul 8
New

Hourly Weather History & Observations

Time (CDT) Temp. Heat Index Dew Point Humidity Pressure Visibility Wind Dir Wind Speed Gust Speed Precip Events Conditions
12:15 AM 63.5 °F - 52.7 °F 68% 29.97 in 10.0 mi East 15.0 mph - N/A   Clear
12:35 AM 63.7 °F - 52.0 °F 66% 29.95 in 10.0 mi ESE 16.1 mph - N/A   Clear
12:55 AM 63.9 °F - 51.8 °F 65% 29.92 in 10.0 mi ESE 18.4 mph 24.2 mph N/A   Clear
1:15 AM 63.7 °F - 51.8 °F 65% 29.91 in 10.0 mi East 16.1 mph - N/A   Clear
1:35 AM 63.5 °F - 52.2 °F 67% 29.92 in 10.0 mi ESE 17.3 mph - N/A   Clear
1:55 AM 63.5 °F - 52.7 °F 68% 29.93 in 10.0 mi SE 11.5 mph - N/A   Clear
2:15 AM 63.9 °F - 53.1 °F 68% 29.92 in 10.0 mi SE 16.1 mph 21.9 mph N/A   Clear
2:35 AM 63.5 °F - 52.9 °F 68% 29.90 in 10.0 mi SE 15.0 mph - N/A   Clear
2:55 AM 63.1 °F - 53.1 °F 70% 29.88 in 10.0 mi SE 9.2 mph - N/A   Clear
3:15 AM 63.1 °F - 53.2 °F 70% 29.87 in 10.0 mi SE 12.7 mph - N/A   Clear
3:35 AM 62.8 °F - 53.6 °F 72% 29.87 in 10.0 mi SE 9.2 mph - N/A   Clear
3:55 AM 62.8 °F - 54.0 °F 73% 29.85 in 10.0 mi SE 12.7 mph - N/A   Clear
4:15 AM 63.0 °F - 54.1 °F 73% 29.85 in 10.0 mi SSE 15.0 mph 19.6 mph N/A   Clear
4:35 AM 63.9 °F - 54.5 °F 72% 29.86 in 10.0 mi SSE 18.4 mph 24.2 mph N/A   Clear
4:55 AM 64.0 °F - 54.0 °F 70% 29.83 in 10.0 mi SE 19.6 mph 25.3 mph N/A   Clear
5:15 AM 63.0 °F - 54.0 °F 72% 29.82 in 10.0 mi SE 15.0 mph 19.6 mph N/A   Clear
5:35 AM 62.8 °F - 54.5 °F 74% 29.81 in 10.0 mi SE 13.8 mph 20.7 mph N/A   Clear
5:55 AM 62.6 °F - 54.9 °F 76% 29.81 in 10.0 mi SE 13.8 mph 18.4 mph N/A   Clear
6:15 AM 62.8 °F - 55.4 °F 77% 29.81 in 10.0 mi SE 13.8 mph - N/A   Clear
6:35 AM 62.8 °F - 55.0 °F 76% 29.82 in 10.0 mi SE 11.5 mph 20.7 mph N/A   Clear
6:55 AM 62.6 °F - 55.4 °F 77% 29.83 in 10.0 mi SSE 9.2 mph - N/A   Clear
7:15 AM 62.8 °F - 55.8 °F 78% 29.82 in 10.0 mi SE 8.1 mph - N/A   Clear
7:35 AM 64.0 °F - 56.3 °F 76% 29.82 in 10.0 mi SE 10.4 mph - N/A   Clear
7:55 AM 65.5 °F - 56.8 °F 74% 29.81 in 10.0 mi SSE 16.1 mph - N/A   Clear
8:15 AM 66.7 °F - 57.4 °F 72% 29.81 in 10.0 mi SSE 12.7 mph - N/A   Clear
8:35 AM 68.2 °F - 57.6 °F 69% 29.81 in 10.0 mi SSE 11.5 mph - N/A   Clear
8:55 AM 69.8 °F - 58.1 °F 66% 29.82 in 10.0 mi SSE 11.5 mph - N/A   Clear
9:15 AM 72.0 °F - 59.0 °F 64% 29.81 in 10.0 mi South 9.2 mph - N/A   Clear
9:35 AM 74.3 °F - 58.8 °F 58% 29.83 in 10.0 mi South 5.8 mph - N/A   Clear
9:55 AM 74.8 °F - 58.1 °F 56% 29.84 in 10.0 mi SSW 9.2 mph - N/A   Clear
10:15 AM 78.1 °F - 59.4 °F 52% 29.84 in 10.0 mi SW 8.1 mph - N/A   Clear
10:35 AM 79.5 °F - 59.4 °F 50% 29.84 in 10.0 mi SW 11.5 mph 19.6 mph N/A   Clear
10:55 AM 80.2 °F 81.1 °F 60.6 °F 51% 29.84 in 10.0 mi SW 12.7 mph 18.4 mph N/A   Clear
11:15 AM 80.8 °F 81.8 °F 61.7 °F 52% 29.84 in 10.0 mi SW 11.5 mph 17.3 mph N/A   Clear
11:35 AM 81.5 °F 82.2 °F 61.3 °F 50% 29.83 in 10.0 mi SSW 11.5 mph - N/A   Clear
11:55 AM 82.8 °F 83.4 °F 61.5 °F 49% 29.83 in 10.0 mi WSW 16.1 mph 20.7 mph N/A   Clear
12:15 PM 83.5 °F 83.7 °F 60.6 °F 46% 29.83 in 10.0 mi SW 12.7 mph 20.7 mph N/A   Clear
12:35 PM 84.0 °F 84.4 °F 61.0 °F 46% 29.83 in 10.0 mi SW 12.7 mph 18.4 mph N/A   Clear
12:55 PM 85.3 °F 85.2 °F 60.4 °F 43% 29.83 in 10.0 mi SW 9.2 mph - N/A   Clear
1:15 PM 84.4 °F 83.8 °F 58.5 °F 41% 29.84 in 10.0 mi West 15.0 mph - N/A   Clear
1:35 PM 84.2 °F 83.5 °F 57.7 °F 40% 29.84 in 10.0 mi West 13.8 mph 17.3 mph N/A   Clear
1:55 PM 84.4 °F 84.0 °F 58.6 °F 42% 29.84 in 10.0 mi West 12.7 mph - N/A   Clear
2:15 PM 85.8 °F 84.7 °F 57.0 °F 37% 29.83 in 10.0 mi WNW 12.7 mph 18.4 mph N/A   Clear
2:35 PM 84.9 °F 83.6 °F 55.0 °F 36% 29.84 in 10.0 mi WNW 15.0 mph - N/A   Clear
2:55 PM 85.1 °F 83.9 °F 55.9 °F 37% 29.85 in 10.0 mi West 11.5 mph 16.1 mph N/A   Clear
3:15 PM 85.1 °F 84.3 °F 57.4 °F 39% 29.85 in 10.0 mi West 11.5 mph - N/A   Clear
3:35 PM 84.2 °F 83.2 °F 55.8 °F 38% 29.85 in 10.0 mi West 9.2 mph - N/A   Clear
3:55 PM 85.5 °F 84.8 °F 58.3 °F 40% 29.85 in 10.0 mi NW 9.2 mph 16.1 mph N/A   Clear
4:15 PM 85.6 °F 84.7 °F 57.0 °F 38% 29.85 in 10.0 mi NW 15.0 mph 18.4 mph N/A   Clear
4:35 PM 85.1 °F 84.4 °F 57.9 °F 40% 29.85 in 10.0 mi NNW 12.7 mph - N/A   Clear
4:55 PM 83.5 °F 83.6 °F 59.9 °F 45% 29.86 in 10.0 mi NNW 16.1 mph 20.7 mph N/A   Clear
5:15 PM 82.8 °F 83.0 °F 60.1 °F 46% 29.85 in 10.0 mi North 13.8 mph 18.4 mph N/A   Clear
5:35 PM 82.2 °F 82.4 °F 59.5 °F 46% 29.85 in 10.0 mi NNW 15.0 mph 19.6 mph N/A   Clear
5:55 PM 81.9 °F 82.8 °F 61.9 °F 51% 29.85 in 10.0 mi NNW 12.7 mph - N/A   Clear
6:15 PM 81.5 °F 82.0 °F 59.9 °F 48% 29.87 in 10.0 mi North 12.7 mph 19.6 mph N/A   Clear
6:35 PM 80.6 °F 81.7 °F 62.1 °F 53% 29.86 in 10.0 mi North 12.7 mph 17.3 mph N/A   Clear
6:55 PM 80.4 °F 81.5 °F 61.9 °F 53% 29.87 in 10.0 mi North 11.5 mph 17.3 mph N/A   Clear
7:15 PM 79.7 °F - 61.7 °F 54% 29.87 in 10.0 mi North 9.2 mph - N/A   Clear
7:35 PM 77.9 °F - 61.3 °F 57% 29.87 in 10.0 mi North 11.5 mph - N/A   Clear
7:55 PM 78.1 °F - 62.4 °F 58% 29.87 in 10.0 mi North 11.5 mph - N/A   Clear
8:15 PM 77.5 °F - 62.8 °F 60% 29.86 in 10.0 mi North 9.2 mph - N/A   Clear
8:35 PM 77.0 °F - 63.0 °F 62% 29.87 in 10.0 mi North 8.1 mph - N/A   Clear
8:55 PM 75.6 °F - 63.1 °F 65% 29.88 in 10.0 mi North 8.1 mph - N/A   Clear
9:15 PM 74.3 °F - 63.0 °F 68% 29.90 in 10.0 mi North 9.2 mph - N/A   Clear
9:35 PM 72.7 °F - 62.8 °F 71% 29.90 in 10.0 mi NNE 4.6 mph - N/A   Clear
9:55 PM 70.7 °F - 61.9 °F 74% 29.91 in 10.0 mi NNE 4.6 mph - N/A   Clear
10:15 PM 72.5 °F - 61.9 °F 69% 29.93 in 10.0 mi Calm Calm - N/A   Clear
10:35 PM 69.3 °F - 62.6 °F 79% 29.94 in 10.0 mi ENE 5.8 mph - N/A   Clear
10:55 PM 70.0 °F - 63.1 °F 79% 29.96 in 10.0 mi East 3.5 mph - N/A   Scattered Clouds
11:15 PM 70.0 °F - 62.6 °F 77% 29.96 in 7.0 mi NE 4.6 mph - N/A   Scattered Clouds
11:35 PM 68.2 °F - 62.2 °F 81% 29.95 in 10.0 mi NNE 3.5 mph - N/A   Clear
11:55 PM 68.2 °F - 63.0 °F 83% 29.95 in 10.0 mi ENE 4.6 mph - N/A   Clear